ITASAT

Last updated on Mon Sep 21 2026 00:03:14 GMT+0000 (Coordinated Universal Time)

1 43786U 18099AE 26263.30604079 .00004099 00000+0 19271-3 0 9997 2 43786 97.3933 312.9360 0012755 27.4941 332.6967 15.20070306427356
UTC large
Height (km)
Speed (km/s)
/
Latitude / Longitude
Inclination (degrees)
Orbital Period (minutes)
Azimuth
Elevation
Range (km)
Doppler Factor

Next 0 passes for location: London (51.5072 / 0.1276)

No passes found over London.
ITASAT